When you browse on this site, cookies collect data to enhance your experience and personalize the content and advertising you see.
Visit our Privacy Policy to learn more. By continuing to use the site, you agree to this use of cookies and data.
  • en France
  • Liste des pays
  • À 7 jours
  • Température de l'eau
  • Carte satellitaire
  • Carte météo
  • Widgets météo
  • user-avatar
    Se connecter

    Météo par heure à Agafonovo

    Ce jour, 19 Février, Mardi

    Heure Température Précipitation Vent Pression Humidité
    00:00 -4°C° 0 mm 5 m/s 757 mmHg 77%
    01:00 -4°C° 0 mm 5 m/s 756 mmHg 80%
    02:00 -4°C° 0 mm 5 m/s 756 mmHg 82%
    03:00 -4°C° 0 mm 5 m/s 755 mmHg 84%
    04:00 -2°C° 0 mm 5 m/s 755 mmHg 86%
    05:00 -2°C° 0 mm 5 m/s 754 mmHg 88%
    06:00 -2°C° 0 mm 5 m/s 754 mmHg 89%
    07:00 -2°C° 0 mm 5 m/s 753 mmHg 89%
    08:00 -1°C° 0 mm 4 m/s 753 mmHg 89%
    09:00 -1°C° 0 mm 4 m/s 752 mmHg 89%
    10:00 0°C° 0 mm 4 m/s 752 mmHg 89%
    11:00 0°C° 0 mm 4 m/s 752 mmHg 89%
    12:00 0°C° 0 mm 4 m/s 751 mmHg 89%
    13:00 0°C° 0 mm 4 m/s 750 mmHg 89%
    14:00 +1°C° 0 mm 5 m/s 750 mmHg 88%
    15:00 +1°C° 0 mm 5 m/s 749 mmHg 88%
    16:00 +1°C° 0 mm 5 m/s 748 mmHg 89%
    17:00 +1°C° 0 mm 5 m/s 747 mmHg 89%
    18:00 +1°C° 0 mm 5 m/s 746 mmHg 89%
    19:00 +1°C° 0 mm 5 m/s 746 mmHg 89%
    20:00 +1°C° 0 mm 5 m/s 745 mmHg 90%
    21:00 +1°C° 0.2 mm 5 m/s 745 mmHg 90%
    22:00 0°C° 0.2 mm 4 m/s 744 mmHg 89%
    23:00 0°C° 0.2 mm 4 m/s 743 mmHg 89%

    Demain, 20 Février, Mercredi

    Heure Température Précipitation Vent Pression Humidité
    00:00 0°C° 0.3 mm 4 m/s 743 mmHg 90%
    01:00 0°C° 0.3 mm 4 m/s 743 mmHg 91%
    02:00 +1°C° 0.3 mm 4 m/s 743 mmHg 92%
    03:00 +1°C° 0.1 mm 4 m/s 743 mmHg 92%
    04:00 +1°C° 0.1 mm 4 m/s 743 mmHg 92%
    05:00 +1°C° 0.1 mm 4 m/s 742 mmHg 91%
    06:00 +1°C° 0.2 mm 4 m/s 742 mmHg 91%
    07:00 +1°C° 0.2 mm 4 m/s 742 mmHg 90%
    08:00 +1°C° 0.2 mm 4 m/s 742 mmHg 90%
    09:00 +1°C° 0.1 mm 5 m/s 742 mmHg 88%
    10:00 +1°C° 0.1 mm 5 m/s 741 mmHg 86%
    11:00 +2°C° 0.1 mm 5 m/s 741 mmHg 83%
    12:00 +1°C° 0.2 mm 5 m/s 741 mmHg 83%
    13:00 +1°C° 0.2 mm 5 m/s 741 mmHg 83%
    14:00 +1°C° 0.2 mm 5 m/s 741 mmHg 83%
    15:00 +1°C° 0.3 mm 5 m/s 741 mmHg 82%
    16:00 0°C° 0.3 mm 5 m/s 741 mmHg 81%
    17:00 -2°C° 0.3 mm 6 m/s 741 mmHg 80%
    18:00 -2°C° 0.2 mm 6 m/s 742 mmHg 81%
    19:00 -3°C° 0.2 mm 6 m/s 742 mmHg 83%
    20:00 -3°C° 0.2 mm 6 m/s 743 mmHg 85%
    21:00 -4°C° 0.2 mm 6 m/s 744 mmHg 83%
    22:00 -4°C° 0.2 mm 6 m/s 744 mmHg 81%
    23:00 -4°C° 0.2 mm 6 m/s 745 mmHg 79%

    Après-demain, 21 Février, Jeudi

    Heure Température Précipitation Vent Pression Humidité
    00:00 -5°C° 0.1 mm 6 m/s 746 mmHg 78%
    01:00 -5°C° 0.1 mm 6 m/s 747 mmHg 77%
    02:00 -5°C° 0.1 mm 6 m/s 748 mmHg 76%
    03:00 -6°C° 0.1 mm 6 m/s 748 mmHg 75%
    04:00 -6°C° 0.1 mm 6 m/s 749 mmHg 74%
    05:00 -8°C° 0.1 mm 6 m/s 749 mmHg 73%
    06:00 -8°C° 0 mm 6 m/s 750 mmHg 73%
    07:00 -8°C° 0 mm 6 m/s 751 mmHg 73%
    08:00 -8°C° 0 mm 6 m/s 752 mmHg 72%
    09:00 -8°C° 0 mm 6 m/s 752 mmHg 70%
    10:00 -8°C° 0 mm 6 m/s 753 mmHg 68%
    11:00 -8°C° 0 mm 6 m/s 754 mmHg 66%
    12:00 -6°C° 0 mm 5 m/s 754 mmHg 65%
    13:00 -6°C° 0 mm 5 m/s 755 mmHg 64%
    14:00 -6°C° 0 mm 5 m/s 756 mmHg 63%
    15:00 -7°C° 0 mm 5 m/s 757 mmHg 64%
    16:00 -7°C° 0 mm 5 m/s 757 mmHg 65%
    17:00 -8°C° 0 mm 4 m/s 758 mmHg 66%
    18:00 -8°C° 0 mm 4 m/s 759 mmHg 66%
    19:00 -9°C° 0 mm 4 m/s 760 mmHg 66%
    20:00 -9°C° 0 mm 4 m/s 761 mmHg 66%
    21:00 -9°C° 0 mm 4 m/s 761 mmHg 67%
    22:00 -10°C° 0 mm 4 m/s 762 mmHg 67%
    23:00 -10°C° 0 mm 4 m/s 763 mmHg 68%

    22 Février, Vendredi

    Heure Température Précipitation Vent Pression Humidité
    00:00 -10°C° 0 mm 4 m/s 764 mmHg 68%
    01:00 -10°C° 0 mm 4 m/s 764 mmHg 69%
    02:00 -10°C° 0 mm 4 m/s 765 mmHg 69%
    03:00 -9°C° 0 mm 3 m/s 766 mmHg 72%
    04:00 -10°C° 0 mm 3 m/s 766 mmHg 74%
    05:00 -10°C° 0 mm 3 m/s 767 mmHg 77%
    06:00 -10°C° 0 mm 3 m/s 768 mmHg 76%
    07:00 -10°C° 0 mm 3 m/s 768 mmHg 75%
    08:00 -10°C° 0 mm 3 m/s 769 mmHg 74%
    09:00 -9°C° 0 mm 3 m/s 769 mmHg 69%
    10:00 -8°C° 0 mm 3 m/s 769 mmHg 65%
    11:00 -8°C° 0 mm 4 m/s 770 mmHg 60%
    12:00 -8°C° 0 mm 4 m/s 770 mmHg 60%
    13:00 -7°C° 0 mm 4 m/s 770 mmHg 59%
    14:00 -7°C° 0 mm 5 m/s 770 mmHg 59%
    15:00 -7°C° 0 mm 4 m/s 770 mmHg 63%
    16:00 -7°C° 0 mm 4 m/s 770 mmHg 67%
    17:00 -8°C° 0 mm 4 m/s 770 mmHg 72%
    18:00 -8°C° 0 mm 4 m/s 771 mmHg 74%
    19:00 -7°C° 0 mm 3 m/s 771 mmHg 76%
    20:00 -8°C° 0 mm 3 m/s 772 mmHg 78%
    21:00 -8°C° 0 mm 3 m/s 772 mmHg 78%
    22:00 -7°C° 0 mm 2 m/s 772 mmHg 78%
    23:00 -7°C° 0 mm 2 m/s 772 mmHg 77%

    23 Février, Samedi

    Heure Température Précipitation Vent Pression Humidité
    00:00 -7°C° 0 mm 2 m/s 772 mmHg 79%
    01:00 -7°C° 0 mm 1 m/s 772 mmHg 82%
    02:00 -7°C° 0 mm 1 m/s 772 mmHg 84%
    03:00 -7°C° 0 mm 1 m/s 772 mmHg 84%
    04:00 -7°C° 0 mm 1 m/s 772 mmHg 84%
    05:00 -7°C° 0 mm 1 m/s 771 mmHg 84%
    06:00 -7°C° 0 mm 1 m/s 771 mmHg 84%
    07:00 -6°C° 0 mm 1 m/s 771 mmHg 84%
    08:00 -6°C° 0 mm 1 m/s 770 mmHg 83%
    09:00 -7°C° 0.1 mm 2 m/s 770 mmHg 83%
    10:00 -6°C° 0.1 mm 2 m/s 769 mmHg 83%
    11:00 -6°C° 0.1 mm 2 m/s 769 mmHg 83%
    12:00 -5°C° 0.5 mm 2 m/s 768 mmHg 85%
    13:00 -6°C° 0.5 mm 3 m/s 768 mmHg 88%
    14:00 -6°C° 0.5 mm 3 m/s 767 mmHg 90%
    15:00 -6°C° 0.2 mm 3 m/s 767 mmHg 90%
    16:00 -5°C° 0.2 mm 2 m/s 767 mmHg 90%
    17:00 -5°C° 0.2 mm 2 m/s 767 mmHg 89%
    18:00 -5°C° 0 mm 2 m/s 768 mmHg 90%
    19:00 -5°C° 0 mm 2 m/s 768 mmHg 91%
    20:00 -3°C° 0 mm 1 m/s 768 mmHg 92%
    21:00 -3°C° 0 mm 1 m/s 769 mmHg 93%
    22:00 -4°C° 0 mm 1 m/s 769 mmHg 94%
    23:00 -4°C° 0 mm 1 m/s 769 mmHg 95%

    24 Février, Dimanche

    Heure Température Précipitation Vent Pression Humidité
    00:00 -4°C° 0 mm 1 m/s 770 mmHg 95%
    01:00 -4°C° 0 mm 1 m/s 770 mmHg 95%
    02:00 -6°C° 0 mm 1 m/s 770 mmHg 95%
    03:00 -6°C° 0 mm 1 m/s 770 mmHg 95%
    04:00 -4°C° 0 mm 1 m/s 771 mmHg 95%
    05:00 -4°C° 0 mm 1 m/s 771 mmHg 95%
    06:00 -6°C° 0 mm 2 m/s 771 mmHg 94%
    07:00 -5°C° 0 mm 2 m/s 771 mmHg 93%
    08:00 -5°C° 0 mm 2 m/s 771 mmHg 92%
    09:00 -4°C° 0 mm 2 m/s 770 mmHg 90%
    10:00 -4°C° 0 mm 3 m/s 770 mmHg 88%
    11:00 -2°C° 0 mm 3 m/s 770 mmHg 86%
    12:00 -2°C° 0 mm 3 m/s 769 mmHg 85%
    13:00 -2°C° 0 mm 4 m/s 769 mmHg 85%
    14:00 -2°C° 0 mm 4 m/s 768 mmHg 84%
    15:00 -2°C° 0 mm 4 m/s 767 mmHg 86%
    16:00 -2°C° 0 mm 4 m/s 766 mmHg 87%
    17:00 -2°C° 0 mm 4 m/s 765 mmHg 88%
    18:00 -2°C° 0.2 mm 4 m/s 765 mmHg 88%
    19:00 -2°C° 0.2 mm 4 m/s 764 mmHg 89%
    20:00 -1°C° 0.2 mm 4 m/s 763 mmHg 90%
    21:00 -1°C° 0.1 mm 4 m/s 762 mmHg 91%
    22:00 -1°C° 0.1 mm 4 m/s 762 mmHg 92%
    23:00 0°C° 0.1 mm 4 m/s 761 mmHg 94%
    Voir plus